Peachtree City, GA (30269)

11:19 AM EDT on August 29, 2015 (GMT -0400)
Shadowood | | Change Station
CLOSE
Current Station
Personal Weather Station
Location: Peachtree City, GA
Elevation: 892 ft
Nearby Weather Stations

Elev 892 ft 33.39 °N, 84.56 °W | Updated 13 minutes ago

Overcast
Overcast
76.6 °F
Feels Like 78 °F
N
0.0
Wind Variable Wind from SSE

Today
High -- | Low -- °F
--% Chance of Precip.
Yesterday
High -- | Low -- °F
Precip. -- in
7:10 AM 8:07 PM
Full, 100% visible
Pressure 30.20 in
Visibility 5.0 miles
Clouds Overcast 1200 ft
Heat Index 78 °F
Dew Point 72 °F
Humidity 86%
Rainfall 0.00 in
Snow Depth Not available.
UV 2 out of 12
Pollen 8.00 out of 12
Air Quality Not available.
Flu Activity Not available.
METAR KFFC 291453Z AUTO 11007KT 5SM BR OVC012 24/22 A3021 RMK AO2 RAB01E14 SLP225 P0000 60000 T02390217 51009
Pressure 30.20 in
Visibility 5.0 miles
Clouds Overcast 1200 ft
Heat Index 78 °F
Dew Point 72 °F
Humidity 86%
Rainfall 0.00 in
Snow Depth Not available.
UV 2 out of 12
Pollen 8.00 out of 12
Air Quality Not available.
Flu Activity Not available.
METAR KFFC 291453Z AUTO 11007KT 5SM BR OVC012 24/22 A3021 RMK AO2 RAB01E14 SLP225 P0000 60000 T02390217 51009

10-Day Weather Forecast

×

Almanac

Astronomy

Aug. 29, 2015 Rise Set
Actual Time
Civil Twilight
Nautical Twilight
Astronomical Twilight
Moon
Length of Visible Light
Length of Day
Tomorrow will be .
, % of the Moon is Illuminated

Today's Extremes

State Highs State Lows

Community

WunderPhotos

Upload Photos

1,850,694 photos uploaded!

WunderBlogs® & News

Nearby

Air Quality

  Air Quality AQ Index Pollutant
Not available.

Snow Depth

Station Depth Elevation

Earthquake Activity

City Distance Mag. Time & Date
Minimum magnitude displayed is 2.5.

Coastal Water Temperatures

Place Temperature

Stations

Nearby Weather Stations

Station Location Temp. Windchill Dew Point Humidity Wind Precip. Elev Updated Type